| time (UTC) | temp F | wind direction | speed MPH | gust MPH | rain 1hr in | rain 24hr in | rain mn in | humidity % | barometer mb |
| 20260904172012 | 80 | 186 | 6.0 | 19.0 | 0.00 | 0.00 | 0.00 | 26 | 1003.1 |
| 20260904171510 | 79 | 186 | 11.0 | 19.0 | 0.00 | 0.00 | 0.00 | 26 | 1003.2 |
| 20260904171009 | 79 | 134 | 8.0 | 18.0 | 0.00 | 0.00 | 0.00 | 25 | 1003.2 |
| 20260904170512 | 79 | 150 | 8.0 | 18.0 | 0.00 | 0.00 | 0.00 | 24 | 1003.2 |
| 20260904170107 | 79 | 119 | 6.0 | 22.0 | 0.00 | 0.00 | 0.00 | 26 | 1003.3 |
| 20260904165505 | 79 | 156 | 11.0 | 22.0 | 0.00 | 0.00 | 0.00 | 24 | 1003.2 |
| 20260904165004 | 79 | 144 | 9.0 | 21.0 | 0.00 | 0.00 | 0.00 | 24 | 1003.3 |
| 20260904164503 | 79 | 175 | 6.0 | 18.0 | 0.00 | 0.00 | 0.00 | 26 | 1003.2 |
| 20260904164005 | 78 | 134 | 7.0 | 20.0 | 0.00 | 0.00 | 0.00 | 25 | 1003.3 |
| 20260904163501 | 78 | 144 | 10.0 | 20.0 | 0.00 | 0.00 | 0.00 | 25 | 1003.5 |
| 20260904163108 | 78 | 150 | 7.0 | 18.0 | 0.00 | 0.00 | 0.00 | 25 | 1003.5 |
| 20260904162558 | 78 | 152 | 7.0 | 14.0 | 0.00 | 0.00 | 0.00 | 25 | 1003.5 |
| 20260904162056 | 77 | 163 | 8.0 | 14.0 | 0.00 | 0.00 | 0.00 | 25 | 1003.5 |
| 20260904161556 | 77 | 165 | 6.0 | 19.0 | 0.00 | 0.00 | 0.00 | 25 | 1003.5 |
| 20260904161057 | 77 | 111 | 8.0 | 19.0 | 0.00 | 0.00 | 0.00 | 25 | 1003.7 |
| 20260904160553 | 77 | 144 | 10.0 | 17.0 | 0.00 | 0.00 | 0.00 | 25 | 1003.5 |
| 20260904160055 | 77 | 190 | 7.0 | 14.0 | 0.00 | 0.00 | 0.00 | 24 | 1003.5 |
| 20260904155551 | 77 | 174 | 6.0 | 19.0 | 0.00 | 0.00 | 0.00 | 27 | 1003.5 |
| 20260904155052 | 76 | 132 | 10.0 | 20.0 | 0.00 | 0.00 | 0.00 | 26 | 1003.5 |
| 20260904154547 | 76 | 178 | 12.0 | 17.0 | 0.00 | 0.00 | 0.00 | 25 | 1003.4 |
| 20260904154045 | 76 | 163 | 7.0 | 17.0 | 0.00 | 0.00 | 0.00 | 26 | 1003.5 |
| 20260904153543 | 76 | 186 | 9.0 | 17.0 | 0.00 | 0.00 | 0.00 | 26 | 1003.4 |
| 20260904153047 | 75 | 152 | 7.0 | 17.0 | 0.00 | 0.00 | 0.00 | 26 | 1003.5 |
| 20260904152541 | 75 | 178 | 9.0 | 13.0 | 0.00 | 0.00 | 0.00 | 26 | 1003.5 |
| 20260904152041 | 75 | 183 | 7.0 | 15.0 | 0.00 | 0.00 | 0.00 | 26 | 1003.6 |
| 20260904151538 | 75 | 161 | 8.0 | 14.0 | 0.00 | 0.00 | 0.00 | 26 | 1003.6 |
| 20260904151040 | 74 | 162 | 4.0 | 19.0 | 0.00 | 0.00 | 0.00 | 25 | 1003.6 |
| 20260904150537 | 74 | 162 | 8.0 | 19.0 | 0.00 | 0.00 | 0.00 | 24 | 1003.6 |
| 20260904150044 | 74 | 183 | 7.0 | 18.0 | 0.00 | 0.00 | 0.00 | 24 | 1003.6 |
| 20260904145536 | 74 | 175 | 7.0 | 18.0 | 0.00 | 0.00 | 0.00 | 24 | 1003.6 |
| 20260904145036 | 74 | 184 | 6.0 | 16.0 | 0.00 | 0.00 | 0.00 | 25 | 1003.6 |
| 20260904144537 | 73 | 169 | 8.0 | 18.0 | 0.00 | 0.00 | 0.00 | 25 | 1003.5 |
| 20260904144034 | 73 | 170 | 8.0 | 15.0 | 0.00 | 0.00 | 0.00 | 25 | 1003.5 |
| 20260904143532 | 73 | 184 | 7.0 | 16.0 | 0.00 | 0.00 | 0.00 | 24 | 1003.5 |
| 20260904143035 | 73 | 152 | 7.0 | 16.0 | 0.00 | 0.00 | 0.00 | 24 | 1003.6 |
| 20260904142531 | 72 | 178 | 8.0 | 15.0 | 0.00 | 0.00 | 0.00 | 24 | 1003.5 |
| 20260904142033 | 72 | 180 | 7.0 | 15.0 | 0.00 | 0.00 | 0.00 | 24 | 1003.4 |
| 20260904141531 | 72 | 171 | 8.0 | 16.0 | 0.00 | 0.00 | 0.00 | 24 | 1003.4 |
| 20260904141037 | 72 | 214 | 7.0 | 15.0 | 0.00 | 0.00 | 0.00 | 24 | 1003.4 |
| 20260904140529 | 72 | 185 | 6.0 | 15.0 | 0.00 | 0.00 | 0.00 | 24 | 1003.4 |
| 20260904140036 | 72 | 189 | 7.0 | 15.0 | 0.00 | 0.00 | 0.00 | 23 | 1003.4 |
| 20260904135529 | 71 | 171 | 6.0 | 17.0 | 0.00 | 0.00 | 0.00 | 23 | 1003.3 |
| 20260904135028 | 71 | 185 | 6.0 | 12.0 | 0.00 | 0.00 | 0.00 | 23 | 1003.3 |
| 20260904134527 | 71 | 181 | 7.0 | 16.0 | 0.00 | 0.00 | 0.00 | 22 | 1003.2 |
| 20260904134026 | 71 | 165 | 8.0 | 16.0 | 0.00 | 0.00 | 0.00 | 22 | 1003.2 |
| 20260904133525 | 71 | 173 | 8.0 | 15.0 | 0.00 | 0.00 | 0.00 | 22 | 1003.1 |
| 20260904133024 | 71 | 163 | 8.0 | 14.0 | 0.00 | 0.00 | 0.00 | 22 | 1003.1 |
| 20260904132525 | 71 | 179 | 7.0 | 14.0 | 0.00 | 0.00 | 0.00 | 22 | 1003.0 |
| 20260904132023 | 70 | 169 | 7.0 | 14.0 | 0.00 | 0.00 | 0.00 | 21 | 1002.9 |
| 20260904131521 | 70 | 175 | 6.0 | 14.0 | 0.00 | 0.00 | 0.00 | 21 | 1002.9 |
| 20260904131021 | 70 | 178 | 8.0 | 14.0 | 0.00 | 0.00 | 0.00 | 21 | 1002.8 |
| 20260904130523 | 71 | 164 | 8.0 | 14.0 | 0.00 | 0.00 | 0.00 | 20 | 1002.8 |
| 20260904130019 | 71 | 186 | 9.0 | 14.0 | 0.00 | 0.00 | 0.00 | 20 | 1002.7 |
| 20260904125518 | 71 | 181 | 7.0 | 15.0 | 0.00 | 0.00 | 0.00 | 20 | 1002.7 |
| 20260904125022 | 71 | 177 | 8.0 | 15.0 | 0.00 | 0.00 | 0.00 | 19 | 1002.7 |
| 20260904124517 | 71 | 153 | 7.0 | 15.0 | 0.00 | 0.00 | 0.00 | 20 | 1002.7 |
| 20260904124015 | 71 | 190 | 7.0 | 15.0 | 0.00 | 0.00 | 0.00 | 20 | 1002.6 |
| 20260904123517 | 71 | 171 | 7.0 | 17.0 | 0.00 | 0.00 | 0.00 | 20 | 1002.5 |
| 20260904123013 | 72 | 169 | 8.0 | 17.0 | 0.00 | 0.00 | 0.00 | 19 | 1002.5 |
| 20260904122513 | 72 | 182 | 7.0 | 15.0 | 0.00 | 0.00 | 0.00 | 19 | 1002.4 |
| 20260904122013 | 72 | 173 | 7.0 | 15.0 | 0.00 | 0.00 | 0.00 | 19 | 1002.2 |
| 20260904121512 | 72 | 149 | 6.0 | 19.0 | 0.00 | 0.00 | 0.00 | 19 | 1002.3 |
| 20260904121014 | 72 | 146 | 8.0 | 19.0 | 0.00 | 0.00 | 0.00 | 19 | 1002.2 |
| 20260904120511 | 72 | 167 | 9.0 | 17.0 | 0.00 | 0.00 | 0.00 | 19 | 1002.3 |
| 20260904120011 | 72 | 182 | 9.0 | 19.0 | 0.00 | 0.00 | 0.00 | 18 | 1002.2 |
| 20260904115509 | 72 | 196 | 8.0 | 16.0 | 0.00 | 0.00 | 0.00 | 19 | 1002.2 |
| 20260904115009 | 72 | 182 | 8.0 | 21.0 | 0.00 | 0.00 | 0.00 | 19 | 1002.2 |
| 20260904114509 | 72 | 191 | 7.0 | 21.0 | 0.00 | 0.00 | 0.00 | 18 | 1002.2 |
| 20260904114012 | 72 | 153 | 9.0 | 16.0 | 0.00 | 0.00 | 0.00 | 18 | 1002.0 |
| 20260904113509 | 72 | 143 | 8.0 | 14.0 | 0.00 | 0.00 | 0.00 | 17 | 1002.0 |
| 20260904113016 | 72 | 163 | 8.0 | 16.0 | 0.00 | 0.00 | 0.00 | 17 | 1002.0 |
| 20260904112508 | 72 | 188 | 7.0 | 16.0 | 0.00 | 0.00 | 0.00 | 17 | 1002.0 |
| 20260904112008 | 72 | 188 | 9.0 | 20.0 | 0.00 | 0.00 | 0.00 | 16 | 1002.1 |
| 20260904111507 | 72 | 191 | 7.0 | 15.0 | 0.00 | 0.00 | 0.00 | 17 | 1002.1 |
| 20260904111010 | 73 | 170 | 9.0 | 16.0 | 0.00 | 0.00 | 0.00 | 16 | 1002.1 |
| 20260904110607 | 72 | 168 | 10.0 | 16.0 | 0.00 | 0.00 | 0.00 | 16 | 1002.0 |
| 20260904110019 | 73 | 140 | 8.0 | 17.0 | 0.00 | 0.00 | 0.00 | 16 | 1002.0 |
| 20260904105504 | 73 | 133 | 11.0 | 20.0 | 0.00 | 0.00 | 0.00 | 15 | 1001.8 |
| 20260904105004 | 73 | 126 | 6.0 | 15.0 | 0.00 | 0.00 | 0.00 | 17 | 1001.9 |
| 20260904104503 | 73 | 122 | 7.0 | 15.0 | 0.00 | 0.00 | 0.00 | 17 | 1001.8 |
| 20260904104003 | 73 | 183 | 8.0 | 15.0 | 0.00 | 0.00 | 0.00 | 17 | 1001.8 |
| 20260904103502 | 73 | 155 | 7.0 | 17.0 | 0.00 | 0.00 | 0.00 | 17 | 1001.8 |
| 20260904103101 | 73 | 136 | 9.0 | 16.0 | 0.00 | 0.00 | 0.00 | 17 | 1001.9 |
| 20260904102601 | 73 | 178 | 6.0 | 15.0 | 0.00 | 0.00 | 0.00 | 18 | 1001.9 |
| 20260904102100 | 73 | 132 | 7.0 | 15.0 | 0.00 | 0.00 | 0.00 | 18 | 1001.8 |
| 20260904101609 | 73 | 182 | 7.0 | 14.0 | 0.00 | 0.00 | 0.00 | 18 | 1001.8 |
| 20260904101059 | 73 | 188 | 8.0 | 16.0 | 0.00 | 0.00 | 0.00 | 18 | 1001.8 |
| 20260904100558 | 73 | 169 | 7.0 | 16.0 | 0.00 | 0.00 | 0.00 | 18 | 1001.8 |
| 20260904100101 | 73 | 173 | 8.0 | 13.0 | 0.00 | 0.00 | 0.00 | 18 | 1001.8 |
| 20260904095556 | 73 | 174 | 8.0 | 12.0 | 0.00 | 0.00 | 0.00 | 18 | 1001.8 |
| 20260904095057 | 73 | 143 | 6.0 | 12.0 | 0.00 | 0.00 | 0.00 | 18 | 1001.7 |
| 20260904094555 | 73 | 134 | 7.0 | 12.0 | 0.00 | 0.00 | 0.00 | 17 | 1001.7 |
| 20260904094054 | 73 | 172 | 6.0 | 15.0 | 0.00 | 0.00 | 0.00 | 17 | 1001.6 |
| 20260904093555 | 73 | 190 | 5.0 | 14.0 | 0.00 | 0.00 | 0.00 | 17 | 1001.6 |
| 20260904093113 | 73 | 125 | 8.0 | 18.0 | 0.00 | 0.00 | 0.00 | 17 | 1001.6 |
| 20260904092557 | 73 | 142 | 6.0 | 18.0 | 0.00 | 0.00 | 0.00 | 17 | 1001.6 |
| 20260904092057 | 73 | 165 | 6.0 | 13.0 | 0.00 | 0.00 | 0.00 | 17 | 1001.6 |
| 20260904091555 | 73 | 142 | 6.0 | 14.0 | 0.00 | 0.00 | 0.00 | 18 | 1001.6 |
| 20260904091054 | 73 | 164 | 5.0 | 15.0 | 0.00 | 0.00 | 0.00 | 19 | 1001.6 |
| 20260904090555 | 72 | 126 | 5.0 | 15.0 | 0.00 | 0.00 | 0.00 | 19 | 1001.6 |
| 20260904090054 | 72 | 169 | 4.0 | 9.0 | 0.00 | 0.00 | 0.00 | 20 | 1001.6 |
| 20260904085556 | 72 | 152 | 3.0 | 12.0 | 0.00 | 0.00 | 0.00 | 20 | 1001.6 |
| 20260904085052 | 72 | 162 | 3.0 | 12.0 | 0.00 | 0.00 | 0.00 | 20 | 1001.5 |
| 20260904084551 | 72 | 142 | 2.0 | 11.0 | 0.00 | 0.00 | 0.00 | 19 | 1001.7 |
| 20260904084053 | 72 | 164 | 2.0 | 11.0 | 0.00 | 0.00 | 0.00 | 19 | 1001.6 |
| 20260904083549 | 73 | 171 | 2.0 | 9.0 | 0.00 | 0.00 | 0.00 | 18 | 1001.5 |
| 20260904083052 | 74 | 161 | 2.0 | 11.0 | 0.00 | 0.00 | 0.00 | 18 | 1001.6 |
| 20260904082549 | 74 | 130 | 4.0 | 13.0 | 0.00 | 0.00 | 0.00 | 16 | 1001.5 |
| 20260904082048 | 75 | 183 | 6.0 | 15.0 | 0.00 | 0.00 | 0.00 | 16 | 1001.4 |
| 20260904081548 | 74 | 161 | 3.0 | 15.0 | 0.00 | 0.00 | 0.00 | 17 | 1001.4 |
| 20260904081052 | 74 | 157 | 6.0 | 15.0 | 0.00 | 0.00 | 0.00 | 17 | 1001.4 |
| 20260904080547 | 74 | 144 | 5.0 | 14.0 | 0.00 | 0.00 | 0.00 | 17 | 1001.4 |
| 20260904080046 | 73 | 192 | 4.0 | 14.0 | 0.00 | 0.00 | 0.00 | 18 | 1001.2 |
| 20260904075545 | 73 | 182 | 5.0 | 16.0 | 0.00 | 0.00 | 0.00 | 18 | 1001.2 |
| 20260904075046 | 73 | 157 | 5.0 | 16.0 | 0.00 | 0.00 | 0.00 | 18 | 1001.1 |
| 20260904074545 | 72 | 133 | 2.0 | 10.0 | 0.00 | 0.00 | 0.00 | 19 | 1001.2 |
| 20260904074042 | 73 | 116 | 3.0 | 10.0 | 0.00 | 0.00 | 0.00 | 18 | 1001.1 |
| 20260904073542 | 73 | 167 | 3.0 | 12.0 | 0.00 | 0.00 | 0.00 | 19 | 1001.2 |
| 20260904073041 | 73 | 185 | 5.0 | 12.0 | 0.00 | 0.00 | 0.00 | 20 | 1001.1 |
| 20260904072540 | 74 | 136 | 4.0 | 11.0 | 0.00 | 0.00 | 0.00 | 20 | 1001.1 |
| 20260904072040 | 74 | 178 | 3.0 | 13.0 | 0.00 | 0.00 | 0.00 | 19 | 1001.0 |
| 20260904071539 | 74 | 140 | 4.0 | 13.0 | 0.00 | 0.00 | 0.00 | 19 | 1001.0 |
| 20260904071038 | 73 | 143 | 5.0 | 14.0 | 0.00 | 0.00 | 0.00 | 20 | 1000.9 |
| 20260904070537 | 73 | 154 | 5.0 | 13.0 | 0.00 | 0.00 | 0.00 | 22 | 1000.9 |
| 20260904070045 | 73 | 163 | 3.0 | 10.0 | 0.00 | 0.00 | 0.00 | 21 | 1000.9 |
| 20260904065539 | 74 | 149 | 4.0 | 10.0 | 0.00 | 0.00 | 0.00 | 21 | 1000.8 |
| 20260904065039 | 74 | 158 | 4.0 | 13.0 | 0.00 | 0.00 | 0.00 | 22 | 1000.7 |
| 20260904064543 | 74 | 146 | 4.0 | 13.0 | 0.00 | 0.00 | 0.00 | 22 | 1000.8 |
| 20260904064036 | 73 | 181 | 3.0 | 8.0 | 0.00 | 0.00 | 0.00 | 21 | 1000.7 |
| 20260904063531 | 73 | 184 | 4.0 | 11.0 | 0.00 | 0.00 | 0.00 | 23 | 1000.7 |
| 20260904063030 | 73 | 182 | 4.0 | 9.0 | 0.00 | 0.00 | 0.00 | 24 | 1000.5 |
| 20260904062530 | 74 | 148 | 4.0 | 9.0 | 0.00 | 0.00 | 0.00 | 24 | 1000.6 |
| 20260904062032 | 74 | 153 | 3.0 | 10.0 | 0.00 | 0.00 | 0.00 | 20 | 1000.6 |
| 20260904061533 | 74 | 174 | 6.0 | 15.0 | 0.00 | 0.00 | 0.00 | 20 | 1000.5 |
| 20260904061031 | 74 | 175 | 5.0 | 15.0 | 0.00 | 0.00 | 0.00 | 20 | 1000.5 |
| 20260904060526 | 74 | 133 | 3.0 | 8.0 | 0.00 | 0.00 | 0.00 | 21 | 1000.4 |
| 20260904060024 | 74 | 152 | 2.0 | 7.0 | 0.00 | 0.00 | 0.00 | 20 | 1000.5 |
| 20260904055524 | 74 | 165 | 2.0 | 8.0 | 0.00 | 0.00 | 0.00 | 21 | 1000.4 |
| 20260904055024 | 74 | 124 | 2.0 | 7.0 | 0.00 | 0.00 | 0.00 | 22 | 1000.2 |
| 20260904054531 | 75 | 164 | 2.0 | 9.0 | 0.00 | 0.00 | 0.00 | 22 | 1000.3 |
| 20260904054025 | 75 | 188 | 4.0 | 9.0 | 0.00 | 0.00 | 0.00 | 21 | 1000.2 |
| 20260904053528 | 75 | 182 | 4.0 | 10.0 | 0.00 | 0.00 | 0.00 | 21 | 1000.2 |
| 20260904053024 | 75 | 180 | 3.0 | 10.0 | 0.00 | 0.00 | 0.00 | 22 | 1000.2 |
| 20260904052524 | 75 | 143 | 3.0 | 7.0 | 0.00 | 0.00 | 0.00 | 22 | 1000.2 |
| 20260904052024 | 76 | 153 | 2.0 | 9.0 | 0.00 | 0.00 | 0.00 | 19 | 1000.1 |
| 20260904051523 | 77 | 140 | 4.0 | 9.0 | 0.00 | 0.00 | 0.00 | 17 | 1000.1 |
| 20260904051022 | 76 | 173 | 3.0 | 7.0 | 0.00 | 0.00 | 0.00 | 18 | 1000.1 |
| 20260904050523 | 76 | 156 | 3.0 | 10.0 | 0.00 | 0.00 | 0.00 | 18 | 1000.1 |
| 20260904050023 | 76 | 184 | 4.0 | 10.0 | 0.00 | 0.00 | 0.00 | 18 | 1000.1 |
| 20260904045525 | 77 | 142 | 2.0 | 9.0 | 0.00 | 0.00 | 0.00 | 18 | 1000.1 |
| 20260904045023 | 77 | 190 | 4.0 | 9.0 | 0.00 | 0.00 | 0.00 | 17 | 1000.2 |
| 20260904044531 | 76 | 178 | 4.0 | 8.0 | 0.00 | 0.00 | 0.00 | 18 | 1000.2 |
| 20260904044023 | 76 | 180 | 4.0 | 8.0 | 0.00 | 0.00 | 0.00 | 18 | 1000.3 |
| 20260904043523 | 75 | 174 | 3.0 | 9.0 | 0.00 | 0.00 | 0.00 | 19 | 1000.2 |
| 20260904043022 | 72 | 167 | 3.0 | 6.0 | 0.00 | 0.00 | 0.00 | 22 | 1000.2 |
| 20260904042522 | 69 | 161 | 1.0 | 4.0 | 0.00 | 0.00 | 0.00 | 26 | 1000.1 |
| 20260904042023 | 69 | 134 | 1.0 | 3.0 | 0.00 | 0.00 | 0.00 | 28 | 1000.2 |
| 20260904041521 | 70 | 109 | 2.0 | 3.0 | 0.00 | 0.00 | 0.00 | 26 | 1000.1 |
| 20260904041021 | 70 | 108 | 1.0 | 4.0 | 0.00 | 0.00 | 0.00 | 25 | 1000.2 |
| 20260904040526 | 70 | 103 | 2.0 | 4.0 | 0.00 | 0.00 | 0.00 | 25 | 1000.0 |
| 20260904040021 | 71 | 107 | 1.0 | 4.0 | 0.00 | 0.00 | 0.00 | 25 | 1000.1 |
| 20260904035519 | 71 | 116 | 1.0 | 4.0 | 0.00 | 0.00 | 0.00 | 23 | 1000.0 |
| 20260904035019 | 72 | 123 | 2.0 | 4.0 | 0.00 | 0.00 | 0.00 | 22 | 1000.0 |
| 20260904034540 | 72 | 111 | 1.0 | 3.0 | 0.00 | 0.00 | 0.00 | 24 | 1000.0 |
| 20260904034020 | 72 | 111 | 2.0 | 4.0 | 0.00 | 0.00 | 0.00 | 23 | 999.9 |
| 20260904033519 | 73 | 129 | 2.0 | 4.0 | 0.00 | 0.00 | 0.00 | 23 | 999.9 |
| 20260904033019 | 73 | 155 | 1.0 | 3.0 | 0.00 | 0.00 | 0.00 | 22 | 1000.0 |
| 20260904032519 | 74 | 172 | 0.0 | 3.0 | 0.00 | 0.00 | 0.00 | 21 | 999.8 |
| 20260904032019 | 74 | 169 | 0.0 | 2.0 | 0.00 | 0.00 | 0.00 | 21 | 1000.0 |
| 20260904031521 | 76 | 177 | 0.0 | 3.0 | 0.00 | 0.00 | 0.00 | 20 | 1000.0 |
| 20260904031019 | 77 | 175 | 1.0 | 4.0 | 0.00 | 0.00 | 0.00 | 20 | 999.9 |
| 20260904030519 | 78 | 182 | 1.0 | 4.0 | 0.00 | 0.00 | 0.00 | 18 | 1000.0 |
| 20260904030019 | 78 | 179 | 1.0 | 3.0 | 0.00 | 0.00 | 0.00 | 17 | 1000.0 |
| 20260904025519 | 78 | 175 | 1.0 | 3.0 | 0.00 | 0.00 | 0.00 | 18 | 1000.0 |
| 20260904025018 | 79 | 175 | 1.0 | 4.0 | 0.00 | 0.00 | 0.00 | 17 | 1000.0 |
| 20260904024518 | 79 | 175 | 2.0 | 4.0 | 0.00 | 0.00 | 0.00 | 16 | 1000.0 |
| 20260904024018 | 79 | 183 | 2.0 | 4.0 | 0.00 | 0.00 | 0.00 | 17 | 999.9 |
| 20260904023518 | 80 | 182 | 1.0 | 4.0 | 0.00 | 0.00 | 0.00 | 16 | 999.9 |
| 20260904023018 | 80 | 183 | 2.0 | 5.0 | 0.00 | 0.00 | 0.00 | 16 | 999.9 |
| 20260904022520 | 80 | 178 | 2.0 | 6.0 | 0.00 | 0.00 | 0.00 | 16 | 999.8 |
| 20260904022021 | 81 | 173 | 2.0 | 8.0 | 0.00 | 0.00 | 0.00 | 16 | 999.8 |
| 20260904021517 | 81 | 185 | 4.0 | 8.0 | 0.00 | 0.00 | 0.00 | 15 | 999.9 |
| 20260904021017 | 81 | 173 | 2.0 | 9.0 | 0.00 | 0.00 | 0.00 | 15 | 999.9 |
| 20260904020517 | 82 | 177 | 3.0 | 9.0 | 0.00 | 0.00 | 0.00 | 14 | 999.7 |
| 20260904020016 | 82 | 167 | 4.0 | 8.0 | 0.00 | 0.00 | 0.00 | 14 | 999.8 |
| 20260904015517 | 82 | 168 | 3.0 | 8.0 | 0.00 | 0.00 | 0.00 | 15 | 999.9 |
| 20260904015015 | 83 | 169 | 4.0 | 10.0 | 0.00 | 0.00 | 0.00 | 14 | 999.9 |
| 20260904014514 | 83 | 184 | 4.0 | 10.0 | 0.00 | 0.00 | 0.00 | 14 | 999.9 |
| 20260904014013 | 83 | 163 | 5.0 | 11.0 | 0.00 | 0.00 | 0.00 | 14 | 1000.0 |
| 20260904013514 | 83 | 153 | 3.0 | 10.0 | 0.00 | 0.00 | 0.00 | 14 | 1000.1 |
| 20260904013013 | 83 | 134 | 5.0 | 10.0 | 0.00 | 0.00 | 0.00 | 14 | 1000.1 |
| 20260904012513 | 84 | 208 | 3.0 | 10.0 | 0.00 | 0.00 | 0.00 | 15 | 1000.1 |
| 20260904012116 | 84 | 181 | 6.0 | 10.0 | 0.00 | 0.00 | 0.00 | 13 | 1000.2 |
| 20260904011542 | 84 | 188 | 7.0 | 10.0 | 0.00 | 0.00 | 0.00 | 14 | 1000.2 |
| 20260904011011 | 84 | 195 | 3.0 | 10.0 | 0.00 | 0.00 | 0.00 | 14 | 1000.3 |
| 20260904010512 | 84 | 173 | 5.0 | 12.0 | 0.00 | 0.00 | 0.00 | 13 | 1000.2 |
| 20260904010011 | 84 | 180 | 4.0 | 9.0 | 0.00 | 0.00 | 0.00 | 14 | 1000.4 |
| 20260904005515 | 84 | 179 | 4.0 | 12.0 | 0.00 | 0.00 | 0.00 | 14 | 1000.4 |
| 20260904005010 | 84 | 183 | 6.0 | 12.0 | 0.00 | 0.00 | 0.00 | 13 | 1000.4 |
| 20260904004510 | 84 | 178 | 6.0 | 10.0 | 0.00 | 0.00 | 0.00 | 14 | 1000.5 |
| 20260904004010 | 84 | 169 | 5.0 | 9.0 | 0.00 | 0.00 | 0.00 | 14 | 1000.5 |
| 20260904003511 | 84 | 186 | 4.0 | 8.0 | 0.00 | 0.00 | 0.00 | 15 | 1000.4 |
| 20260904003013 | 84 | 178 | 4.0 | 10.0 | 0.00 | 0.00 | 0.00 | 14 | 1000.4 |
| 20260904002509 | 84 | 182 | 6.0 | 10.0 | 0.00 | 0.00 | 0.00 | 14 | 1000.4 |
| 20260904002009 | 84 | 182 | 5.0 | 10.0 | 0.00 | 0.00 | 0.00 | 14 | 1000.4 |
| 20260904001509 | 84 | 176 | 2.0 | 9.0 | 0.00 | 0.00 | 0.00 | 15 | 1000.5 |
| 20260904001008 | 84 | 188 | 5.0 | 11.0 | 0.00 | 0.00 | 0.00 | 14 | 1000.4 |
| 20260904000509 | 85 | 178 | 7.0 | 15.0 | 0.00 | 0.00 | 0.00 | 14 | 1000.5 |
| 20260904000109 | 85 | 178 | 6.0 | 15.0 | 0.00 | 0.00 | 0.00 | 14 | 1000.6 |
| 20260903235609 | 85 | 185 | 5.0 | 14.0 | 0.00 | 0.00 | 0.00 | 14 | 1000.5 |
| 20260903235006 | 85 | 180 | 5.0 | 16.0 | 0.00 | 0.00 | 0.00 | 14 | 1000.6 |
| 20260903234606 | 85 | 151 | 7.0 | 18.0 | 0.00 | 0.00 | 0.00 | 13 | 1000.6 |
| 20260903234006 | 86 | 178 | 8.0 | 18.0 | 0.00 | 0.00 | 0.00 | 13 | 1000.6 |
| 20260903233505 | 86 | 139 | 7.0 | 13.0 | 0.00 | 0.00 | 0.00 | 13 | 1000.5 |
| 20260903233015 | 86 | 179 | 6.0 | 17.0 | 0.00 | 0.00 | 0.00 | 13 | 1000.7 |
| 20260903232505 | 86 | 163 | 4.0 | 17.0 | 0.00 | 0.00 | 0.00 | 13 | 1000.8 |
| 20260903232005 | 86 | 172 | 9.0 | 15.0 | 0.00 | 0.00 | 0.00 | 13 | 1000.8 |
| 20260903231504 | 86 | 197 | 8.0 | 15.0 | 0.00 | 0.00 | 0.00 | 13 | 1000.9 |
| 20260903231003 | 86 | 171 | 9.0 | 17.0 | 0.00 | 0.00 | 0.00 | 12 | 1000.9 |
| 20260903230505 | 86 | 189 | 7.0 | 20.0 | 0.00 | 0.00 | 0.00 | 13 | 1001.0 |
| 20260903230002 | 86 | 155 | 10.0 | 21.0 | 0.00 | 0.00 | 0.00 | 13 | 1001.0 |
| 20260903225506 | 86 | 182 | 8.0 | 15.0 | 0.00 | 0.00 | 0.00 | 13 | 1001.1 |
| 20260903225002 | 85 | 168 | 9.0 | 13.0 | 0.00 | 0.00 | 0.00 | 12 | 1001.2 |
| 20260903224503 | 85 | 186 | 8.0 | 17.0 | 0.00 | 0.00 | 0.00 | 12 | 1001.2 |
| 20260903224001 | 85 | 145 | 9.0 | 21.0 | 0.00 | 0.00 | 0.00 | 12 | 1001.2 |
| 20260903223600 | 85 | 163 | 11.0 | 21.0 | 0.00 | 0.00 | 0.00 | 11 | 1001.2 |
| 20260903223101 | 85 | 199 | 11.0 | 27.0 | 0.00 | 0.00 | 0.00 | 12 | 1001.4 |
| 20260903222601 | 86 | 112 | 10.0 | 27.0 | 0.00 | 0.00 | 0.00 | 11 | 1001.4 |
| 20260903222059 | 86 | 174 | 7.0 | 13.0 | 0.00 | 0.00 | 0.00 | 13 | 1001.4 |
| 20260903221558 | 86 | 159 | 6.0 | 14.0 | 0.00 | 0.00 | 0.00 | 13 | 1001.5 |
| 20260903221057 | 86 | 171 | 7.0 | 14.0 | 0.00 | 0.00 | 0.00 | 12 | 1001.5 |
| 20260903220600 | 86 | 126 | 5.0 | 15.0 | 0.00 | 0.00 | 0.00 | 13 | 1001.6 |
| 20260903220112 | 86 | 194 | 7.0 | 15.0 | 0.00 | 0.00 | 0.00 | 12 | 1001.7 |
| 20260903215556 | 86 | 186 | 6.0 | 13.0 | 0.00 | 0.00 | 0.00 | 12 | 1001.6 |
| 20260903215055 | 86 | 169 | 8.0 | 16.0 | 0.00 | 0.00 | 0.00 | 12 | 1001.8 |
| 20260903214556 | 86 | 186 | 7.0 | 16.0 | 0.00 | 0.00 | 0.00 | 13 | 1001.8 |
| 20260903214054 | 86 | 176 | 5.0 | 15.0 | 0.00 | 0.00 | 0.00 | 13 | 1002.0 |
| 20260903213554 | 86 | 198 | 7.0 | 16.0 | 0.00 | 0.00 | 0.00 | 13 | 1002.0 |
| 20260903213059 | 86 | 197 | 6.0 | 16.0 | 0.00 | 0.00 | 0.00 | 12 | 1002.0 |
| 20260903212557 | 86 | 125 | 8.0 | 19.0 | 0.00 | 0.00 | 0.00 | 12 | 1002.0 |
| 20260903212053 | 86 | 176 | 7.0 | 19.0 | 0.00 | 0.00 | 0.00 | 12 | 1002.1 |
| 20260903211557 | 85 | 202 | 6.0 | 18.0 | 0.00 | 0.00 | 0.00 | 13 | 1002.2 |
| 20260903211051 | 86 | 163 | 7.0 | 16.0 | 0.00 | 0.00 | 0.00 | 12 | 1002.3 |
| 20260903210551 | 86 | 180 | 7.0 | 15.0 | 0.00 | 0.00 | 0.00 | 13 | 1002.4 |
| 20260903210053 | 86 | 200 | 6.0 | 13.0 | 0.00 | 0.00 | 0.00 | 13 | 1002.6 |
| 20260903205549 | 85 | 158 | 5.0 | 17.0 | 0.00 | 0.00 | 0.00 | 12 | 1002.5 |
| 20260903205048 | 85 | 182 | 6.0 | 17.0 | 0.00 | 0.00 | 0.00 | 13 | 1002.7 |
| 20260903204548 | 85 | 181 | 5.0 | 10.0 | 0.00 | 0.00 | 0.00 | 13 | 1002.7 |
| 20260903204047 | 85 | 183 | 5.0 | 10.0 | 0.00 | 0.00 | 0.00 | 14 | 1002.7 |
| 20260903203546 | 84 | 155 | 3.0 | 13.0 | 0.00 | 0.00 | 0.00 | 14 | 1002.8 |
| 20260903203108 | 85 | 159 | 8.0 | 13.0 | 0.00 | 0.00 | 0.00 | 13 | 1003.1 |
| 20260903202546 | 85 | 192 | 6.0 | 12.0 | 0.00 | 0.00 | 0.00 | 13 | 1003.2 |
| 20260903202045 | 84 | 210 | 7.0 | 12.0 | 0.00 | 0.00 | 0.00 | 13 | 1003.2 |
| 20260903201545 | 84 | 173 | 5.0 | 13.0 | 0.00 | 0.00 | 0.00 | 15 | 1003.3 |
| 20260903201043 | 83 | 164 | 7.0 | 19.0 | 0.00 | 0.00 | 0.00 | 15 | 1003.2 |
| 20260903200542 | 83 | 162 | 7.0 | 19.0 | 0.00 | 0.00 | 0.00 | 15 | 1003.3 |
| 20260903200042 | 83 | 177 | 7.0 | 11.0 | 0.00 | 0.00 | 0.00 | 15 | 1003.4 |
| 20260903195546 | 83 | 180 | 6.0 | 14.0 | 0.00 | 0.00 | 0.00 | 15 | 1003.4 |
| 20260903195039 | 82 | 175 | 6.0 | 14.0 | 0.00 | 0.00 | 0.00 | 17 | 1003.5 |
| 20260903194539 | 82 | 186 | 5.0 | 13.0 | 0.00 | 0.00 | 0.00 | 17 | 1003.6 |
| 20260903194038 | 82 | 98 | 4.0 | 12.0 | 0.00 | 0.00 | 0.00 | 15 | 1003.7 |
| 20260903193544 | 82 | 168 | 6.0 | 12.0 | 0.00 | 0.00 | 0.00 | 15 | 1003.7 |
| 20260903193040 | 82 | 173 | 6.0 | 16.0 | 0.00 | 0.00 | 0.00 | 14 | 1003.7 |
| 20260903192538 | 81 | 176 | 6.0 | 16.0 | 0.00 | 0.00 | 0.00 | 16 | 1003.7 |
| 20260903192035 | 81 | 202 | 6.0 | 12.0 | 0.00 | 0.00 | 0.00 | 16 | 1003.9 |
| 20260903191535 | 81 | 26 | 2.0 | 14.0 | 0.00 | 0.00 | 0.00 | 24 | 1004.0 |
| 20260903191035 | 81 | 189 | 7.0 | 14.0 | 0.00 | 0.00 | 0.00 | 17 | 1004.1 |
| 20260903190536 | 81 | 139 | 4.0 | 12.0 | 0.00 | 0.00 | 0.00 | 21 | 1004.1 |
| 20260903190032 | 80 | 184 | 6.0 | 11.0 | 0.00 | 0.00 | 0.00 | 17 | 1004.2 |
| 20260903185531 | 79 | 164 | 6.0 | 14.0 | 0.00 | 0.00 | 0.00 | 20 | 1004.2 |
| 20260903185031 | 79 | 209 | 9.0 | 16.0 | 0.00 | 0.00 | 0.00 | 25 | 1004.1 |
| 20260903184534 | 79 | 214 | 7.0 | 16.0 | 0.00 | 0.00 | 0.00 | 16 | 1004.3 |
| 20260903184131 | 77 | 155 | 4.0 | 12.0 | 0.00 | 0.00 | 0.00 | 22 | 1004.3 |
| 20260903183530 | 77 | 173 | 3.0 | 15.0 | 0.00 | 0.00 | 0.00 | 29 | 1004.5 |
| 20260903183037 | 76 | 269 | 7.0 | 16.0 | 0.00 | 0.00 | 0.00 | 30 | 1004.6 |
| 20260903182533 | 77 | 236 | 7.0 | 9.0 | 0.00 | 0.00 | 0.00 | 31 | 1004.7 |
| 20260903182029 | 76 | 293 | 2.0 | 9.0 | 0.00 | 0.00 | 0.00 | 33 | 1004.8 |
| 20260903181529 | 76 | 291 | 6.0 | 15.0 | 0.00 | 0.00 | 0.00 | 32 | 1004.8 |
| 20260903181030 | 76 | 306 | 9.0 | 15.0 | 0.00 | 0.00 | 0.00 | 31 | 1005.0 |
| 20260903180529 | 76 | 232 | 5.0 | 9.0 | 0.00 | 0.00 | 0.00 | 29 | 1005.2 |
| 20260903180026 | 76 | 236 | 6.0 | 11.0 | 0.00 | 0.00 | 0.00 | 29 | 1005.2 |
| 20260903175525 | 76 | 267 | 2.0 | 13.0 | 0.00 | 0.00 | 0.00 | 27 | 1005.2 |
| 20260903175023 | 77 | 241 | 6.0 | 13.0 | 0.00 | 0.00 | 0.00 | 29 | 1005.2 |
| 20260903174525 | 80 | 327 | 1.0 | 7.0 | 0.00 | 0.00 | 0.00 | 19 | 1005.1 |
| 20260903174022 | 80 | 207 | 3.0 | 10.0 | 0.00 | 0.00 | 0.00 | 18 | 1005.1 |
| 20260903173520 | 79 | 53 | 4.0 | 10.0 | 0.00 | 0.00 | 0.00 | 16 | 1005.2 |
| 20260903173019 | 78 | 182 | 5.0 | 14.0 | 0.00 | 0.00 | 0.00 | 16 | 1005.2 |
| 20260903172518 | 78 | 167 | 3.0 | 14.0 | 0.00 | 0.00 | 0.00 | 17 | 1005.3 |